Theta_e
306 306 306 306 306 307 308 308 309 309 309 309 310 310 311 312 313 315 322 323 321 320 319 317 318 319 320 316 317 312 314 313 316 326 325 323 331 332 337 338 340 335 336 339 340
307 307 308 308 308 308 309 309 309 309 309 309 310 311 312 313 313 318 319 323 325 319 317 317 316 317 317 317 316 314 311 315 321 326 322 320 327 331 340 341 340 343 342 339 339
308 308 308 308 308 309 309 309 309 309 309 309 310 312 313 313 320 323 324 324 322 317 317 318 318 319 319 317 315 315 317 319 329 322 320 321 321 323 339 342 341 345 343 342 342
307 307 307 308 308 308 308 308 308 309 310 311 312 313 313 318 322 322 318 316 316 317 317 318 318 319 318 319 318 319 317 318 324 321 322 323 321 325 329 336 339 335 338 339 341
310 309 308 308 308 309 309 310 311 311 312 312 313 313 314 321 321 325 317 317 318 318 318 317 318 319 319 317 317 321 322 322 322 321 322 322 330 339 338 337 336 335 338 338 338
310 311 312 312 312 312 312 313 313 313 313 313 313 313 319 319 324 323 318 319 319 318 319 318 319 316 317 317 318 319 319 321 322 321 322 326 338 343 338 337 337 337 337 337 337
309 310 311 313 314 314 314 314 314 314 314 314 314 313 318 316 321 320 321 321 321 321 319 320 318 317 316 316 316 317 319 318 319 321 324 320 349 346 339 342 342 337 334 335 335
309 310 311 312 313 314 314 314 314 314 314 314 314 314 315 322 325 321 321 321 321 321 320 320 321 317 318 316 316 318 317 318 318 322 322 320 355 348 344 344 343 341 341 338 333
309 310 310 312 313 314 315 316 316 316 316 315 314 317 320 326 322 321 321 321 321 321 322 321 319 316 315 316 315 314 317 317 321 320 323 334 350 346 342 342 343 340 338 335 332
310 310 311 312 313 315 316 319 320 320 321 319 318 319 320 324 323 322 321 321 319 319 318 318 315 316 314 315 318 319 321 322 322 322 345 348 346 343 340 340 340 338 338 335 334
311 310 311 312 313 315 317 320 323 323 322 322 324 321 323 323 321 321 321 320 319 318 318 318 318 319 319 319 321 324 325 325 325 323 339 347 347 344 338 336 338 336 336 335 334
312 310 311 312 313 315 317 320 326 324 323 323 324 323 325 325 322 321 322 320 320 319 319 320 320 320 320 322 325 324 324 325 324 325 337 339 342 337 337 338 335 334 333 332 331
312 311 311 312 314 317 319 322 327 326 323 325 325 326 325 322 322 322 319 320 321 321 322 322 323 323 325 324 324 323 324 323 325 323 335 336 339 340 336 334 332 331 330 329 328
312 312 311 312 317 318 318 323 323 325 327 332 324 324 322 322 323 323 322 322 322 324 322 323 323 325 324 324 323 322 322 322 323 321 321 320 336 340 337 333 330 328 325 325 324
312 312 312 313 315 316 322 323 323 327 340 333 321 324 322 322 323 322 323 323 324 323 322 324 323 325 327 326 324 324 322 322 323 321 321 326 339 342 340 334 330 327 323 320 319
312 312 312 316 315 322 323 325 325 328 339 329 323 322 322 321 322 322 323 323 323 325 327 329 329 329 329 327 325 324 322 320 318 320 324 332 340 347 343 336 329 324 320 318 317
313 312 312 314 316 323 324 323 326 329 329 330 324 322 320 322 323 323 325 323 324 325 326 329 330 330 329 327 324 321 319 322 324 325 326 331 340 342 336 330 327 322 319 317 317
313 312 315 317 322 324 325 324 331 331 330 327 326 322 322 323 324 324 324 328 327 325 326 330 330 328 324 326 326 324 320 320 326 326 325 338 342 340 328 327 323 320 317 317 316
314 314 323 326 325 325 322 328 328 330 327 328 327 331 329 329 327 327 331 330 328 326 327 327 329 327 325 322 323 325 325 320 323 324 322 340 339 334 329 326 323 320 318 317 316
322 325 324 324 324 324 322 327 330 325 325 326 329 331 329 329 332 330 332 331 331 328 326 330 329 328 326 325 324 325 324 326 322 328 328 337 337 338 336 330 325 321 318 316 314
327 322 325 322 324 317 322 326 327 322 322 324 326 326 327 331 330 333 333 331 329 330 326 328 325 326 323 323 326 324 326 324 322 323 326 329 336 332 332 327 325 321 319 318 317
320 323 324 322 318 317 321 325 325 323 323 325 326 327 330 329 330 333 331 330 331 330 327 324 323 325 325 324 323 322 327 325 325 332 333 330 334 327 327 326 323 321 321 317 315
314 321 326 323 323 321 325 326 321 322 322 323 324 324 326 326 326 330 329 326 326 327 327 324 325 328 327 322 321 323 327 325 323 324 330 330 333 325 326 327 325 322 321 315 311
319 323 320 318 321 326 325 325 325 323 324 323 323 324 323 329 328 331 331 332 330 327 335 328 328 326 327 324 322 331 332 328 325 325 332 335 332 328 326 326 323 321 316 310 309
315 321 319 321 320 321 321 322 325 326 324 326 328 330 329 332 329 331 331 331 329 332 329 325 327 327 326 325 330 332 333 332 334 333 333 332 330 326 324 324 324 318 311 310 310
316 318 317 320 318 321 320 322 325 325 324 327 330 330 327 327 327 326 327 328 328 329 327 322 322 327 327 330 330 331 332 330 329 328 326 324 323 322 321 315 313 311 310 310 309
317 317 317 320 321 320 320 325 325 323 328 331 329 329 328 327 326 323 321 322 325 323 326 326 326 326 329 329 330 332 331 327 326 325 324 324 323 318 314 314 312 309 309 309 308
Wind_Speed
5 5 5 6 6 7 8 9 9 10 11 13 15 17 20 24 26 17 6 6 5 9 12 13 12 10 11 5 5 5 2 5 5 4 7 4 6 3 7 8 1 1 4 11 22
5 5 5 5 7 7 8 9 10 11 11 13 15 17 20 24 25 12 13 12 12 11 10 7 8 7 3 3 1 4 3 7 8 4 3 2 1 10 7 6 6 7 14 27 33
6 5 6 7 7 7 9 10 10 11 12 13 15 16 19 22 5 6 7 11 14 11 7 9 10 1 3 1 5 6 8 9 5 4 5 4 8 2 15 2 14 18 18 19 21
6 7 8 8 8 9 9 10 11 11 12 13 14 17 20 4 1 5 7 5 9 9 8 6 4 6 5 5 3 4 9 9 7 5 4 3 1 11 6 6 13 15 19 16 13
7 7 7 8 8 9 9 10 10 11 12 12 13 16 7 3 8 9 6 5 8 8 8 1 4 2 3 6 10 3 3 4 4 4 2 4 18 9 16 20 19 23 22 18 16
9 7 7 8 8 9 9 10 10 10 11 11 12 13 3 3 4 6 4 7 10 8 6 5 7 7 5 5 2 6 6 5 3 5 4 14 14 10 11 19 22 20 17 13 16
11 9 8 9 9 10 11 12 11 11 12 10 10 9 2 11 2 7 8 8 12 16 4 12 5 7 5 11 6 6 9 8 8 4 2 14 19 18 14 21 21 18 14 14 12
13 12 10 9 9 10 11 11 11 11 10 9 8 3 6 8 13 15 15 16 16 20 24 27 17 4 1 5 10 6 4 4 6 2 3 11 7 17 11 17 19 17 13 14 13
16 14 11 9 9 9 9 9 8 7 7 6 2 2 10 13 6 17 20 16 18 19 21 19 3 2 7 4 6 7 5 2 4 8 5 13 13 14 12 12 20 15 14 15 15
18 16 13 10 9 10 10 10 5 3 0 2 0 4 7 5 8 5 17 17 6 5 7 4 5 2 4 4 3 5 6 6 8 9 29 27 19 14 15 18 17 13 13 14 13
19 16 13 12 11 11 12 5 3 2 3 7 6 5 7 8 3 5 9 6 3 5 3 3 4 6 12 7 3 7 7 8 5 7 17 20 18 14 13 16 17 13 12 13 13
20 16 12 11 13 13 12 1 5 6 7 10 12 7 21 15 4 7 7 2 2 7 5 5 4 12 7 6 7 8 6 2 3 10 19 17 19 14 11 13 14 15 13 13 13
21 16 11 10 12 10 8 12 14 17 1 7 6 5 6 6 3 7 7 2 4 5 6 7 4 4 7 7 8 6 7 6 2 3 19 23 8 11 13 16 16 14 13 12 12
20 16 11 10 4 7 9 16 19 5 4 6 5 5 3 3 3 4 6 2 5 6 2 4 5 10 10 10 6 9 6 8 8 7 3 4 4 6 10 12 12 11 10 10 10
19 15 11 8 9 5 17 24 20 3 3 4 4 4 5 5 3 3 2 2 2 5 7 4 7 8 10 3 5 3 4 5 3 5 4 8 7 2 7 9 9 8 9 9 9
17 13 8 4 9 9 23 20 6 5 2 3 5 5 2 4 3 4 1 2 1 4 8 3 0 5 5 3 5 1 9 9 7 4 3 5 5 3 3 4 5 6 7 7 5
18 11 6 6 3 14 20 6 5 2 6 2 6 5 6 4 4 4 3 6 1 4 5 6 6 3 4 7 9 11 7 4 5 5 4 2 10 3 8 8 8 7 5 5 4
17 5 5 8 4 11 10 5 4 6 3 6 2 2 3 3 3 3 4 5 8 6 4 4 7 8 11 4 5 3 6 5 3 3 6 8 4 3 6 8 6 5 3 3 2
14 3 4 2 3 4 5 4 5 4 4 6 6 9 9 9 4 5 5 3 4 5 5 4 2 3 7 3 3 5 3 2 4 1 3 4 4 8 7 6 6 6 5 5 5
8 6 4 3 4 6 5 3 3 3 6 6 5 5 7 8 8 3 4 6 4 5 4 1 2 3 6 8 11 5 3 5 4 2 3 4 3 4 9 6 6 6 7 6 6
5 4 3 1 3 5 3 5 3 4 7 5 4 4 3 4 6 4 5 7 6 4 9 3 4 7 6 5 4 6 6 4 3 3 2 2 2 1 3 5 6 8 5 4 4
6 3 4 4 4 1 2 4 1 5 8 6 5 6 4 6 4 5 4 6 6 3 4 5 4 1 4 5 6 3 3 2 4 3 3 5 4 3 3 3 3 3 4 5 5
2 3 9 5 3 4 7 7 4 4 4 4 5 4 1 4 4 4 7 6 9 5 2 3 4 3 8 8 7 6 5 4 5 4 1 4 2 2 2 3 4 6 3 3 7
3 4 5 5 1 2 5 5 7 6 7 4 7 6 5 8 8 3 3 6 7 5 7 6 4 5 4 7 2 5 7 5 4 4 4 1 4 5 3 5 6 3 4 7 5
4 1 2 3 5 6 4 4 4 5 4 10 9 13 5 4 6 5 4 2 5 3 5 5 3 4 5 6 11 9 9 9 7 3 2 5 2 3 6 5 4 5 7 6 6
3 3 4 3 5 5 6 4 5 3 5 4 8 8 10 5 4 3 4 2 2 3 3 4 1 3 4 10 15 12 9 9 12 9 6 5 0 4 6 10 11 6 5 7 6
7 6 3 5 5 5 3 3 3 2 9 6 9 6 8 6 4 5 4 3 2 5 2 3 3 3 3 3 5 8 8 8 7 6 2 1 1 10 6 8 5 6 7 5 4
Wind_Direction
300 292 288 286 289 287 289 294 303 310 313 317 317 321 326 323 323 322 262 240 278 282 285 300 294 322 307 240 183 114 12 269 264 261 288 338 123 189 52 125 166 71 82 94 116
295 295 299 295 287 288 293 299 306 308 312 315 318 324 327 326 324 280 260 259 274 272 285 322 321 358 284 238 229 133 152 240 212 225 226 258 253 145 115 129 83 82 81 90 111
296 304 296 287 287 293 296 299 301 307 314 316 319 325 328 325 335 257 304 253 257 261 278 303 304 284 260 210 212 202 225 249 235 272 169 30 5 54 122 315 165 148 108 93 100
306 298 289 290 293 291 292 297 303 308 313 314 323 328 330 338 318 285 295 257 243 255 281 312 3 347 310 319 280 177 247 254 294 240 53 15 270 41 60 140 106 76 99 102 98
322 306 297 293 292 294 296 300 301 305 308 315 329 332 338 345 253 266 263 220 246 259 269 109 319 224 236 312 328 100 300 298 302 2 93 42 69 87 78 82 88 92 86 81 83
344 318 309 305 300 297 300 298 298 304 307 316 326 335 352 287 266 241 206 248 256 260 256 154 238 242 279 302 18 294 296 314 323 14 20 66 34 81 63 83 83 86 90 93 101
355 345 327 307 300 300 297 295 298 299 300 309 318 333 267 240 174 206 204 261 267 265 263 276 243 35 322 323 327 341 2 341 314 358 196 120 33 94 111 94 90 86 90 87 88
2 355 336 321 311 305 301 298 296 292 293 297 307 314 254 292 299 228 233 260 274 273 271 274 292 345 21 302 353 7 41 1 306 193 18 73 86 84 90 100 95 91 84 72 62
3 355 344 336 326 320 317 310 297 291 284 279 304 101 275 312 252 228 224 234 268 280 259 273 294 327 1 43 353 4 263 307 28 7 61 86 112 91 82 85 86 76 58 51 56
3 354 347 338 333 330 329 317 278 285 86 120 235 340 276 290 228 228 227 250 269 336 1 47 55 28 15 69 252 302 16 40 57 21 78 95 94 91 96 95 89 79 80 72 67
1 354 347 334 331 330 335 324 27 25 192 200 196 226 278 292 214 235 223 254 353 32 241 323 90 254 263 226 201 102 67 51 355 76 66 91 93 85 92 92 99 98 89 77 64
357 354 348 333 322 329 323 155 223 307 302 234 242 246 260 269 294 284 250 179 121 275 337 22 226 228 233 68 75 62 53 15 325 81 93 104 93 93 78 83 100 104 92 83 73
354 350 346 331 320 321 308 272 303 310 358 296 219 219 232 176 250 250 152 148 267 278 310 145 230 47 81 61 51 33 31 359 329 104 116 111 84 103 83 75 77 75 87 87 88
351 346 341 340 315 318 277 337 340 213 55 280 183 252 210 142 308 195 201 127 333 285 108 76 356 79 48 34 67 32 331 9 4 37 306 183 120 101 97 82 66 52 52 61 60
351 341 337 338 308 297 329 335 338 75 42 237 224 198 149 150 171 287 271 48 282 289 64 296 72 65 62 75 70 250 338 352 9 8 71 355 86 132 144 70 63 69 71 71 73
350 335 332 314 305 339 341 334 345 47 274 228 173 178 159 209 226 235 235 33 272 27 40 40 289 60 154 160 98 256 28 18 26 30 45 314 108 25 56 128 111 97 93 91 94
348 327 304 284 271 350 344 17 41 99 315 155 194 168 196 248 202 179 154 19 130 59 4 360 344 11 35 28 4 44 47 359 0 7 241 31 70 104 99 102 126 142 134 144 163
347 334 306 278 354 333 350 52 54 267 20 333 19 182 198 218 198 168 116 79 22 71 76 77 12 20 340 50 333 309 133 149 245 229 267 33 74 104 136 124 111 96 147 125 189
355 352 325 210 298 327 67 64 215 316 346 3 16 46 5 349 103 112 67 62 55 25 108 61 325 337 33 13 67 301 13 198 119 12 63 115 103 140 130 123 142 168 199 216 219
355 346 292 288 182 66 71 236 266 16 4 39 60 29 24 351 21 48 66 334 85 47 82 343 29 18 321 43 358 61 271 20 8 314 279 82 77 334 154 188 182 193 205 220 195
26 40 268 12 177 52 139 234 278 49 55 52 25 26 16 37 20 27 27 37 33 26 59 60 75 309 32 33 8 350 347 32 127 103 20 349 164 46 105 151 166 203 173 211 230
7 48 337 349 48 70 182 223 226 53 21 27 75 67 34 34 40 58 75 23 350 42 56 340 120 32 261 268 53 58 343 88 116 315 121 150 234 322 150 170 192 190 220 247 234
38 269 16 34 54 338 316 340 61 55 57 35 43 33 13 30 58 70 72 318 49 65 81 353 21 19 344 346 359 42 354 42 90 85 198 145 215 231 124 167 220 239 278 114 54
63 20 333 30 134 106 7 347 7 15 39 47 24 14 12 35 24 116 114 30 23 52 51 96 92 143 191 237 255 64 24 19 89 101 147 254 165 217 215 215 224 224 123 91 72
29 346 188 329 340 340 44 357 27 356 72 17 26 42 65 53 43 47 74 60 30 48 48 86 50 13 309 317 86 91 67 55 67 68 92 170 222 201 236 237 245 97 92 63 44
68 37 346 291 310 359 359 323 20 359 44 54 98 58 56 77 52 38 89 106 186 41 74 20 274 51 319 72 80 63 29 80 86 91 89 134 165 155 76 77 77 81 90 66 69
2 354 95 308 340 19 278 317 10 84 44 92 119 86 45 334 282 239 241 202 234 146 112 102 111 63 290 331 129 46 42 78 79 43 109 48 356 110 79 86 89 72 91 83 48